Location: Dumpton Point
(51.3500°N, 1.4433°E)
Time: 17:38:46
(UTC+00:00)

Vanguard 3 - Pass Details

Date: 26 April 2021
Orbit: 507 x 3262 km, 33.4° (Epoch: 16 May)

Event Time Altitude Azimuth Distance (km) Brightness Sun altitude
Rises 00:49:57 0° 234° (SW) 4,114 - -23.9°
Reaches altitude 10° 00:55:44 10° 200° (SSW) 2,491 - -23.7°
Maximum altitude 00:57:02 11° 187° (S) 2,304 - -23.6°
Drops below altitude 10° 00:58:13 10° 173° (S) 2,239 - -23.5°
Sets 01:02:15 0° 133° (SE) 2,812 - -23.3°
